Location: Banksville Park
(38.5557°N, 75.1182°W)
Time: 18:58:26
(UTC+00:00)

SAR-Lupe-1 - Pass Details

Date: 22 January 2021
Orbit: 482 x 484 km, 98.2° (Epoch: 05 March)

Event Time Altitude Azimuth Distance (km) Brightness Sun altitude
Rises 11:05:58 0° 182° (S) 2,533 7.9 -13.2°
Reaches altitude 10° 11:08:06 10° 190° (S) 1,658 6.8 -12.8°
Maximum altitude 11:11:27 39° 261° (W) 745 4.5 -12.2°
Drops below altitude 10° 11:14:50 10° 331° (NNW) 1,670 6.4 -11.5°
Enters shadow 11:15:13 - 333° (NNW) 1,820 6.6 -11.5°
